Date,TemperatureHighF,TemperatureAvgF,TemperatureLowF,DewpointHighF,DewpointAvgF,DewpointLowF,HumidityHigh,HumidityAvg,HumidityLow,PressureMaxIn,PressureMinIn,WindSpeedMaxMPH,WindSpeedAvgMPH,GustSpeedMaxMPH,PrecipitationSumIn
2013-1-1,28.5,23.3,17.3,24.6,17.5,12.7,87,78,59,30.30,30.13,10,5,15,0.00
2013-1-2,31.2,21.6,13.3,21.5,15.9,10.6,90,79,61,30.31,30.20,3,1,6,0.00
2013-1-3,39.6,30.7,21.6,28.5,24.2,17.5,91,77,58,30.40,30.23,11,4,17,0.01
2013-1-4,41.2,31.5,22.7,26.0,23.1,19.8,89,72,48,30.44,30.31,7,2,17,0.00
2013-1-5,46.8,36.4,26.6,33.1,28.0,22.5,87,72,52,30.32,30.08,7,2,14,0.00
2013-1-6,41.8,33.2,25.8,33.5,25.6,21.8,91,74,59,30.40,30.07,19,7,28,0.00
2013-1-7,45.7,32.7,23.4,31.9,26.8,20.8,93,80,52,30.41,30.16,4,1,9,0.00
2013-1-8,54.4,39.1,28.0,35.4,30.7,24.9,89,73,37,30.21,30.08,4,1,7,0.00
2013-1-9,55.3,47.3,40.4,42.3,35.8,31.7,87,65,44,30.47,30.16,11,3,16,0.00
2013-1-10,52.6,44.5,39.1,52.1,41.0,32.3,98,88,64,30.45,29.76,7,3,11,0.57
2013-1-11,62.8,53.8,50.0,52.9,49.7,47.4,98,86,66,29.86,29.74,5,2,13,0.01
2013-1-12,55.5,45.8,31.7,49.5,39.3,29.4,94,79,52,29.96,29.78,14,5,23,0.49
2013-1-13,31.9,25.1,20.9,29.7,20.8,16.4,92,83,76,30.34,29.91,1,0,3,0.00
2013-1-14,26.8,22.1,18.5,19.3,16.2,12.0,87,78,67,30.53,30.34,6,2,10,0.00
2013-1-15,29.4,24.8,19.4,22.8,19.4,15.6,88,80,70,30.45,30.16,7,3,12,0.00
2013-1-16,41.8,31.3,20.9,27.9,22.5,17.9,91,72,48,30.19,30.02,7,2,17,0.00
2013-1-17,39.9,33.9,26.9,30.6,25.9,21.1,91,73,49,30.50,30.13,13,4,20,0.00
2013-1-18,55.1,37.8,24.4,33.6,27.6,21.9,93,69,37,30.51,30.12,5,1,18,0.00
2013-1-19,62.5,49.9,38.3,37.6,33.0,29.0,72,53,37,30.14,29.89,13,4,23,0.00
2013-1-20,46.9,31.3,24.3,32.0,16.0,9.4,76,53,39,30.35,30.12,18,7,27,0.00
2013-1-21,24.3,19.6,15.6,15.4,5.0,-1.9,73,53,37,30.43,30.32,21,12,33,0.01
2013-1-22,17.6,15.3,12.8,12.4,6.6,0.2,85,69,52,30.52,30.40,8,3,12,0.00
2013-1-23,41.4,26.3,12.8,25.5,17.8,10.2,91,72,53,30.40,30.16,12,2,19,0.00
2013-1-24,28.1,22.0,15.6,16.6,10.1,3.8,72,60,53,30.63,30.28,13,6,22,0.00
2013-1-25,41.9,32.9,26.2,23.1,19.6,13.2,71,58,46,30.30,30.12,9,4,16,0.00
2013-1-26,37.6,30.6,22.6,24.4,18.2,11.4,75,60,40,30.42,30.24,8,3,16,0.00
2013-1-27,47.1,36.2,26.3,46.3,33.6,20.4,97,90,75,30.32,29.94,4,2,10,0.19
2013-1-28,71.8,57.2,44.7,64.3,54.7,43.9,98,92,74,29.95,29.81,4,1,13,0.01
2013-1-29,68.0,60.3,52.0,62.2,57.7,51.5,98,91,81,29.81,29.39,20,3,28,1.24
2013-1-30,52.2,39.1,28.0,51.7,34.3,18.2,98,83,66,29.92,29.33,20,10,37,0.16
2013-1-31,28.0,24.6,12.5,21.8,16.1,1.8,81,70,58,30.42,29.92,23,9,37,0.00
2013-2-1,29.6,19.0,9.7,19.0,6.9,1.3,72,60,42,30.52,30.23,16,5,26,0.00
2013-2-2,41.1,33.2,27.8,27.7,22.1,15.0,94,64,52,30.23,30.06,17,5,26,0.00
2013-2-3,34.8,29.5,23.8,28.8,21.9,15.5,96,75,49,30.20,30.01,21,5,32,0.01
2013-2-4,49.2,34.9,24.3,34.3,27.7,19.6,87,76,54,30.01,29.81,14,3,19,0.02
2013-2-5,53.6,38.7,28.9,36.5,30.7,24.9,92,74,49,30.15,29.89,17,4,24,0.00
2013-2-6,51.3,38.8,28.0,37.1,32.5,26.8,96,80,49,30.24,30.06,5,1,9,0.00
2013-2-7,45.2,39.6,34.7,43.7,37.2,31.8,97,91,86,30.06,29.86,19,4,25,0.23
2013-2-8,37.7,34.9,30.6,35.5,30.7,26.9,93,85,77,30.39,30.07,17,6,22,0.00
2013-2-9,42.1,35.6,30.2,36.4,30.3,26.5,92,81,70,30.39,30.03,4,2,10,0.08
2013-2-10,57.5,47.0,38.4,52.1,41.2,31.4,95,83,41,30.03,29.57,15,4,37,0.39
2013-2-11,49.7,42.2,34.7,31.8,28.3,26.0,81,58,42,30.15,29.77,15,8,36,0.01
2013-2-12,43.8,37.5,29.3,32.8,30.2,27.4,94,76,55,30.17,29.96,2,0,6,0.00
2013-2-13,52.7,42.7,34.1,34.3,31.2,27.9,84,66,39,29.96,29.79,10,3,20,0.00
2013-2-14,52.8,44.0,35.7,35.9,33.1,27.4,90,67,46,30.06,29.81,15,6,22,0.00
2013-2-15,42.7,34.4,28.4,29.0,20.2,12.7,79,57,39,30.28,30.06,16,8,23,0.00
2013-2-16,35.7,28.2,21.8,21.4,15.3,10.8,81,59,36,30.30,30.18,11,6,18,0.00
2013-2-17,46.7,34.9,23.2,33.1,24.6,18.1,90,68,39,30.20,29.91,5,2,11,0.00
2013-2-18,57.1,43.7,33.4,48.7,38.1,24.9,93,81,66,29.91,29.52,27,7,41,0.18
2013-2-19,33.5,28.0,25.0,25.0,17.2,13.3,74,64,53,30.32,29.90,20,12,35,0.00
2013-2-20,25.6,22.5,17.3,15.7,12.8,9.7,75,66,57,30.45,30.32,12,4,20,0.00
2013-2-21,31.7,26.3,20.8,30.7,23.1,15.1,96,88,75,30.37,29.84,14,6,26,0.00
2013-2-22,35.9,31.5,25.2,33.9,27.9,20.0,97,87,72,30.09,29.81,9,4,23,0.15
2013-2-23,34.1,26.1,19.1,22.3,19.3,16.3,90,76,55,30.08,30.01,8,3,14,0.01
2013-2-24,40.6,30.0,19.7,29.2,24.4,18.0,94,80,62,30.15,30.04,5,2,8,0.05
2013-2-25,44.5,37.4,29.9,33.8,30.3,25.5,89,76,61,30.09,29.66,14,6,27,0.09
2013-2-26,37.0,35.4,33.5,35.6,33.7,31.9,96,93,89,29.67,29.38,17,9,29,0.65
2013-2-27,34.3,33.1,32.0,32.5,31.0,29.0,95,92,87,29.90,29.67,10,7,19,0.05
2013-2-28,34.7,33.1,32.0,30.7,29.5,28.6,93,87,80,30.12,29.90,14,8,21,0.00
2013-3-1,33.9,31.1,28.7,30.0,27.8,24.3,95,87,75,30.23,30.08,10,7,18,0.03
2013-3-2,33.7,29.3,25.4,24.7,21.0,18.1,87,72,56,30.28,30.21,16,8,22,0.00
2013-3-3,37.4,30.0,20.3,29.6,23.2,17.6,92,76,56,30.24,30.04,6,2,9,0.00
2013-3-4,50.6,40.3,33.3,40.5,33.3,28.2,88,77,64,30.05,29.75,7,4,12,0.02
2013-3-5,41.2,34.9,32.0,35.2,29.7,22.9,95,82,67,30.14,29.80,25,12,40,0.08
2013-3-6,36.8,32.5,28.3,25.6,24.4,23.1,84,72,60,30.37,30.14,21,10,31,0.00
2013-3-7,44.6,34.0,24.3,33.7,27.8,22.0,92,79,58,30.43,30.31,7,2,15,0.00
2013-3-8,52.9,42.5,29.6,37.7,33.5,27.6,93,72,50,30.43,30.19,6,3,13,0.00
2013-3-9,62.3,49.9,40.3,48.6,41.0,34.0,94,73,54,30.19,29.77,5,2,14,0.29
2013-3-10,54.4,51.1,46.3,53.2,48.9,44.0,97,92,75,29.80,29.60,11,2,18,0.96
2013-3-11,46.3,36.2,33.3,44.1,31.9,27.4,93,84,73,30.00,29.71,12,8,27,0.01
2013-3-12,46.9,37.0,29.5,30.4,26.7,23.0,86,68,47,30.21,29.98,21,8,36,0.01
2013-3-13,40.4,33.3,28.8,28.3,21.1,16.0,85,62,43,30.44,30.21,20,10,32,0.00
2013-3-14,53.0,38.2,28.1,38.0,30.6,25.2,91,75,46,30.41,30.09,5,2,11,0.00
2013-3-15,68.1,51.1,33.0,47.5,39.9,30.1,90,69,40,30.10,29.64,3,1,6,0.00
2013-3-16,59.6,51.0,41.1,48.1,43.6,37.3,87,76,62,29.94,29.62,16,7,24,0.00
2013-3-18,50.8,42.9,36.2,37.9,33.1,23.4,96,70,45,30.03,29.71,17,10,29,0.06
2013-3-19,45.2,37.8,30.7,26.9,19.3,11.7,69,49,28,30.22,30.03,15,6,23,0.00
2013-3-20,37.0,31.1,25.8,30.2,18.0,10.7,83,59,42,30.31,30.13,20,11,29,0.00
2013-3-21,36.4,29.0,22.7,24.1,16.4,12.9,76,60,43,30.16,30.00,7,3,14,0.00
2013-3-22,40.9,35.4,30.3,27.7,25.5,23.4,79,67,55,30.06,29.98,6,3,10,0.00
2013-3-23,52.7,43.6,36.6,35.5,28.9,23.9,73,57,40,30.06,29.84,12,5,22,0.01
2013-3-24,41.9,33.0,31.0,34.2,31.4,30.0,98,94,73,29.88,29.58,11,4,21,0.17
2013-3-25,32.8,31.3,29.5,31.4,29.9,27.2,98,95,80,30.19,29.83,17,4,22,0.15
2013-3-26,40.1,35.3,31.1,28.6,26.5,23.0,86,71,54,30.37,30.19,11,7,18,0.09
2013-3-27,43.7,35.1,24.0,30.9,26.8,22.1,95,73,51,30.41,30.30,4,1,7,0.00
2013-3-28,53.2,43.1,34.2,43.2,34.8,27.0,80,73,61,30.37,30.23,9,4,15,0.00
2013-3-29,60.3,50.7,41.3,47.7,43.0,37.9,89,76,58,30.25,30.17,6,3,11,0.00
2013-3-30,54.9,47.5,39.7,48.0,43.6,38.5,97,87,67,30.20,29.91,5,1,11,0.09
2013-3-31,65.9,54.4,46.0,51.2,43.9,33.1,97,72,37,29.94,29.83,14,5,23,0.00
2013-4-1,50.1,41.8,36.7,34.5,25.5,12.7,71,53,27,30.25,29.94,13,7,23,0.00
2013-4-2,49.4,39.8,31.7,30.4,21.0,16.0,65,48,28,30.37,30.25,11,3,18,0.00
2013-4-3,52.9,43.3,34.3,31.4,24.6,19.3,75,48,32,30.41,30.26,8,4,16,0.00
2013-4-4,60.8,49.3,39.0,34.0,26.2,20.1,60,42,26,30.26,30.02,5,2,11,0.00
2013-4-5,65.9,54.6,45.3,40.1,34.3,29.6,67,48,29,30.18,30.02,7,2,11,0.00
2013-4-6,74.1,62.7,48.9,47.1,40.4,34.1,69,47,25,30.02,29.67,10,3,27,0.00
2013-4-7,78.1,65.4,52.4,58.6,49.5,43.4,83,59,30,29.90,29.73,7,2,13,0.00
2013-4-8,79.1,68.9,59.7,60.5,57.5,53.8,82,68,51,29.83,29.69,9,3,19,0.00
2013-4-9,78.8,70.1,62.2,63.0,60.2,56.8,83,71,57,29.84,29.76,11,3,26,0.00
2013-4-10,77.2,64.7,56.9,66.0,60.9,54.6,96,88,67,29.83,29.60,21,3,50,1.58
2013-4-11,57.0,46.8,41.4,56.2,41.8,31.7,97,83,68,29.75,29.62,11,6,23,0.08
2013-4-12,44.7,42.0,37.9,35.3,33.2,31.0,77,71,65,30.02,29.72,11,6,26,0.00
2013-4-13,60.7,48.2,38.1,43.2,36.9,33.2,83,66,42,30.07,29.89,12,4,22,0.00
2013-4-14,79.6,59.6,46.0,56.6,47.2,41.7,85,67,32,29.89,29.56,8,4,19,0.00
2013-4-15,66.2,59.2,50.5,62.9,56.0,47.7,95,89,71,29.90,29.70,11,3,19,0.32
2013-4-16,50.9,47.5,45.1,47.8,45.1,41.8,95,91,86,30.16,29.85,14,5,23,0.81
2013-4-17,83.9,61.8,48.5,71.9,57.1,46.4,98,86,60,30.14,29.64,8,3,15,0.00
2013-4-18,75.3,59.3,42.0,67.2,54.6,34.3,97,85,73,29.77,29.52,18,6,35,1.74
2013-4-19,50.4,44.3,38.6,34.6,30.1,26.3,75,58,41,30.00,29.75,17,11,33,0.00
2013-4-20,55.2,46.7,38.4,35.7,29.6,24.1,72,53,32,30.34,30.00,8,4,16,0.00
2013-4-21,63.6,51.9,42.6,46.2,39.7,34.4,77,64,41,30.42,30.23,5,2,10,0.00
2013-4-22,71.0,59.3,45.4,51.1,43.4,38.2,79,58,33,30.26,29.94,5,2,15,0.00
2013-4-23,60.9,50.9,40.6,55.0,47.1,38.2,95,87,63,30.04,29.87,13,4,19,0.96
2013-4-24,53.1,44.4,37.3,40.3,34.4,28.0,92,71,39,30.25,30.00,16,8,24,0.05
2013-4-25,63.7,52.2,44.3,44.2,34.6,29.4,79,53,30,30.35,30.23,7,3,14,0.00
2013-4-26,58.9,53.6,48.7,49.5,45.6,40.5,85,74,65,30.35,30.24,3,1,12,0.00
2013-4-27,53.0,51.5,49.1,52.0,49.8,46.7,97,94,83,30.28,29.92,5,2,10,0.40
2013-4-28,57.8,54.3,52.0,51.8,51.2,49.8,96,89,79,29.95,29.89,8,2,15,0.01
2013-4-29,78.7,63.7,48.6,64.2,56.7,47.5,97,80,55,29.93,29.74,4,2,13,0.00
2013-4-30,87.6,73.3,59.4,63.0,59.5,50.3,94,66,29,29.91,29.77,6,2,12,0.00
2013-5-1,84.1,72.4,60.1,62.3,58.4,51.3,89,64,35,30.03,29.91,4,1,12,0.00
2013-5-2,72.5,60.0,44.6,62.2,53.6,42.0,94,80,66,30.16,30.02,17,6,23,0.31
2013-5-3,44.6,43.0,41.4,42.9,41.3,39.3,95,94,90,30.10,29.82,13,7,18,1.47
2013-5-4,48.3,44.7,40.5,45.2,42.2,39.1,96,91,81,30.02,29.83,4,1,8,0.01
2013-5-5,62.4,54.3,46.5,56.3,51.7,44.9,96,91,76,30.00,29.89,7,4,18,0.19
2013-5-6,69.8,60.7,54.8,57.4,54.2,51.8,93,80,54,29.98,29.91,8,3,17,0.00
2013-5-7,79.6,66.6,58.2,60.9,56.4,51.4,92,72,40,30.01,29.94,5,1,8,0.00
2013-5-8,81.7,67.2,55.8,61.4,55.9,46.8,96,71,32,30.02,29.93,12,2,17,0.00
2013-5-9,73.2,66.3,62.2,66.7,61.8,58.6,94,86,70,29.95,29.80,7,1,18,0.39
2013-5-10,63.4,60.2,55.3,60.4,56.8,51.1,96,89,81,29.99,29.81,13,5,17,0.04
2013-5-11,66.2,58.7,53.4,54.7,44.9,32.6,92,64,35,30.16,29.97,20,8,31,0.00
2013-5-12,61.1,54.0,48.1,43.7,33.5,24.8,76,47,31,30.23,30.13,12,6,20,0.00
2013-5-13,74.5,59.8,43.2,48.5,41.2,28.8,95,56,24,30.22,30.01,5,1,9,0.00
2013-5-14,92.0,75.0,54.0,58.1,52.9,46.4,83,50,27,30.02,29.75,7,3,18,0.00
2013-5-15,90.5,79.4,70.3,65.8,58.8,51.3,70,50,37,29.90,29.75,7,3,16,0.00
2013-5-16,82.8,73.8,65.4,69.0,63.6,56.3,88,72,46,29.90,29.80,6,2,14,0.00
2013-5-17,75.9,69.3,63.0,69.1,64.0,58.7,94,83,71,29.93,29.87,5,1,9,0.13
2013-5-18,82.9,72.6,63.4,68.0,65.2,62.5,98,79,55,29.98,29.82,3,1,10,0.00
2013-5-19,92.1,79.4,68.1,74.8,68.8,64.2,91,72,51,29.87,29.64,5,2,18,0.00
2013-5-20,82.0,73.0,63.0,70.7,65.1,59.3,97,78,57,29.87,29.66,35,3,49,2.91
2013-5-21,80.0,70.3,63.3,67.6,63.9,62.1,98,81,60,29.77,29.65,7,2,18,0.09
2013-5-22,74.3,68.3,63.5,63.6,59.3,55.6,95,74,54,29.84,29.63,11,4,19,0.00
2013-5-23,65.1,62.2,57.1,59.1,55.2,50.8,91,78,72,30.22,29.84,15,7,23,0.00
2013-5-24,70.9,58.9,48.4,51.0,45.0,38.5,94,63,34,30.41,30.22,6,2,12,0.00
2013-5-25,67.7,60.6,53.7,57.7,52.2,46.7,90,75,53,30.34,30.11,5,1,12,0.10
2013-5-26,83.7,69.4,55.2,69.2,60.0,51.1,87,73,56,30.18,29.95,13,1,25,0.02
2013-5-27,81.5,68.9,65.7,72.0,65.4,62.8,97,89,69,30.00,29.69,19,2,29,0.63
2013-5-28,84.0,72.6,65.7,71.9,67.5,63.8,97,85,63,29.87,29.73,7,2,17,0.57
2013-5-29,88.4,77.6,66.1,71.2,66.1,62.2,91,69,48,29.92,29.76,6,2,16,0.00
2013-5-30,83.5,76.7,70.7,72.5,69.8,64.8,86,79,66,29.85,29.79,5,2,19,0.02
2013-5-31,81.3,72.0,64.1,73.4,68.0,62.9,97,88,75,29.85,29.72,6,2,17,0.89
2013-6-1,77.4,68.9,64.4,68.8,63.7,57.1,98,85,58,29.86,29.67,11,3,22,0.26
2013-6-2,66.3,63.5,60.3,59.9,57.2,52.8,87,80,71,30.01,29.85,13,6,22,0.00
2013-6-3,69.3,63.4,58.2,56.2,52.3,47.0,82,68,53,30.09,29.97,5,2,11,0.00
2013-6-4,72.5,65.9,58.1,61.8,57.2,54.6,90,75,56,30.07,29.97,5,1,10,0.00
2013-6-5,80.0,69.7,62.0,64.7,61.6,58.3,93,77,49,30.00,29.83,4,2,7,0.01
2013-6-6,75.1,70.1,65.3,64.0,60.4,53.8,91,72,50,29.85,29.81,10,6,16,0.00
2013-6-7,73.3,67.6,60.4,61.2,58.5,56.8,92,73,58,29.89,29.84,8,4,13,0.00
2013-6-8,81.8,71.2,61.8,62.3,59.5,54.6,95,69,42,29.95,29.86,5,1,12,0.00
2013-6-9,79.1,69.1,64.5,65.4,62.6,59.8,93,80,61,29.90,29.76,13,1,26,0.24
2013-6-10,78.7,69.9,64.0,67.0,64.0,62.6,96,82,61,29.88,29.75,7,3,11,0.13
2013-6-11,90.7,78.1,64.8,74.2,69.3,63.8,97,77,51,29.93,29.80,5,1,15,0.00
2013-6-12,93.3,83.8,72.5,75.3,72.6,70.0,94,71,53,29.90,29.67,9,3,26,0.00
2013-6-13,84.5,75.8,68.7,72.5,64.5,57.1,88,69,41,29.95,29.70,16,6,30,0.00
2013-6-14,83.2,74.2,64.9,67.5,62.3,58.6,93,69,46,30.06,29.90,4,1,8,0.00
2013-6-15,87.8,76.3,67.1,72.8,67.1,62.5,94,74,55,30.06,29.88,11,2,18,0.44
2013-6-16,84.5,74.3,68.2,74.6,70.6,67.0,97,89,69,29.99,29.87,4,1,9,0.25
2013-6-17,85.7,75.0,68.9,75.8,70.5,65.0,96,86,68,29.91,29.83,7,1,16,0.01
2013-6-18,87.0,76.2,65.4,70.3,64.5,57.0,94,70,39,29.94,29.87,8,4,14,0.00
2013-6-19,85.5,75.5,66.4,71.2,64.1,61.0,86,70,45,30.04,29.94,5,2,11,0.00
2013-6-20,90.9,80.7,69.8,73.1,68.5,66.0,92,69,45,30.08,29.99,3,1,13,0.00
2013-6-21,92.3,83.2,72.1,75.4,71.9,68.8,91,70,54,30.06,29.92,6,2,18,0.00
2013-6-22,88.3,77.0,70.3,75.7,70.1,64.8,89,80,61,30.04,29.96,6,1,16,0.02
2013-6-23,89.5,74.5,68.5,76.4,68.8,64.7,97,83,59,30.01,29.91,20,1,32,0.45
2013-6-24,92.5,79.9,67.3,76.1,71.4,66.5,98,78,53,30.04,29.87,5,1,12,0.00
2013-6-25,93.0,84.0,75.2,76.5,73.5,71.0,88,72,53,29.92,29.74,6,2,17,0.00
2013-6-26,91.5,79.9,72.2,78.7,74.1,70.7,97,83,65,29.83,29.67,11,2,26,1.15
2013-6-27,91.5,82.5,74.9,74.9,71.6,67.2,92,71,48,29.85,29.73,11,4,17,0.00
2013-6-28,86.0,81.3,75.9,72.0,66.0,54.9,86,62,36,29.79,29.66,16,7,24,0.00
2013-6-29,78.7,72.0,64.2,65.5,63.1,59.8,93,74,59,29.71,29.61,21,7,40,0.89
2013-6-30,76.6,69.2,65.3,65.8,63.8,61.5,92,83,64,29.90,29.71,9,5,19,0.06
2013-7-1,79.5,72.2,65.1,63.6,56.5,53.0,83,59,42,29.96,29.89,10,6,22,0.00
2013-7-2,70.5,65.6,62.9,64.6,59.8,54.3,93,82,58,30.02,29.92,8,3,17,0.21
2013-7-3,83.0,72.3,64.6,66.8,63.1,58.0,95,75,46,30.06,29.97,3,1,7,0.00
2013-7-4,85.7,75.4,63.4,66.4,63.3,59.1,92,68,45,30.06,29.96,3,1,13,0.00
2013-7-5,84.0,75.5,66.8,71.0,66.9,62.9,96,76,53,30.04,29.95,2,0,9,0.00
2013-7-6,87.9,77.2,68.1,71.4,66.9,62.3,95,73,48,30.01,29.93,6,1,15,0.00
2013-7-7,91.3,79.4,67.3,72.5,68.9,63.8,92,72,50,30.01,29.93,5,1,11,0.00
2013-7-8,92.8,83.0,73.2,75.3,72.4,68.8,87,71,55,30.05,29.95,5,1,11,0.00
2013-7-9,93.5,86.1,77.6,77.0,74.4,71.2,87,69,54,30.00,29.87,5,1,13,0.00
2013-7-10,86.8,79.9,73.7,76.9,72.3,66.3,91,78,60,29.95,29.84,11,4,25,0.07
2013-7-11,83.8,76.6,69.3,66.3,62.6,58.3,84,63,43,30.04,29.95,7,3,14,0.00
2013-7-12,86.8,75.2,64.7,63.7,59.5,54.4,86,61,35,30.10,30.00,5,1,10,0.00
2013-7-13,84.8,76.2,65.4,65.1,62.1,57.6,89,64,44,30.07,29.98,4,1,12,0.00
2013-7-14,89.5,78.4,67.6,72.8,67.8,63.4,92,72,50,30.11,30.01,4,1,13,0.00
2013-7-15,91.4,80.9,73.2,77.4,74.0,71.4,96,81,56,30.19,30.09,5,1,11,0.02
2013-7-16,91.5,80.3,74.4,75.8,73.8,71.7,96,82,54,30.26,30.17,3,1,8,0.00
2013-7-17,94.0,87.5,80.4,79.1,76.4,72.4,91,72,51,30.18,30.14,3,0,5,0.00
2013-7-18,95.5,85.7,74.6,78.2,75.6,72.6,97,74,51,30.17,29.97,5,1,8,0.00
2013-7-19,96.2,85.5,75.2,76.5,74.0,70.9,91,70,49,29.97,29.81,5,2,12,0.00
2013-7-20,89.5,80.9,73.9,77.4,72.1,67.9,89,75,58,29.87,29.77,9,2,14,0.00
2013-7-21,82.8,77.5,72.2,74.8,71.3,68.8,94,82,69,29.89,29.80,17,1,23,0.69
2013-7-22,91.8,79.3,69.9,77.7,73.0,69.0,98,83,57,29.84,29.72,13,1,23,0.24
2013-7-23,89.5,81.3,74.2,76.4,71.5,64.6,92,73,54,29.87,29.68,10,4,18,0.00
2013-7-24,78.7,72.9,64.9,64.6,57.8,51.0,79,60,44,30.00,29.86,7,4,15,0.00
2013-7-25,81.2,71.5,64.1,64.4,60.7,56.8,91,71,47,30.09,30.00,5,1,8,0.00
2013-7-26,75.1,71.1,66.4,70.1,65.8,61.0,91,84,72,30.03,29.91,5,2,13,0.01
2013-7-27,74.0,68.4,62.6,66.9,57.5,50.8,94,70,47,29.99,29.93,13,5,20,0.00
2013-7-28,79.3,68.6,56.8,61.6,54.7,50.4,96,64,40,30.03,29.96,9,2,14,0.00
2013-7-29,80.6,70.1,58.8,66.2,61.9,57.1,96,77,50,30.13,30.03,4,0,9,0.00
2013-7-30,77.6,70.8,65.0,71.9,67.9,62.4,97,91,77,30.09,29.97,3,1,8,1.32
2013-7-31,77.8,73.2,69.5,72.0,69.6,67.4,98,89,73,30.01,29.96,13,4,18,0.00
2013-8-1,88.5,76.0,67.3,70.5,65.9,57.6,95,74,38,30.05,29.94,5,2,10,0.00
2013-8-2,81.8,73.6,68.0,74.0,69.1,64.2,97,86,69,29.96,29.88,4,1,11,0.76
2013-8-3,83.9,75.6,70.4,72.5,68.8,63.1,98,81,57,30.08,29.89,6,2,11,0.00
2013-8-4,80.3,73.0,65.7,68.2,63.4,59.1,88,72,50,30.15,30.04,3,0,7,0.00
2013-8-5,75.4,70.6,65.1,69.3,66.3,62.6,94,87,72,30.07,29.84,2,0,9,0.00
2013-8-6,89.0,77.4,70.2,74.9,71.6,68.6,97,84,57,29.89,29.79,4,1,8,0.00
2013-8-7,88.0,78.8,71.1,75.8,72.3,69.8,98,82,59,29.89,29.77,7,2,16,0.13
2013-8-8,78.4,74.6,71.2,73.8,71.7,68.4,97,91,84,29.94,29.85,6,2,9,0.13
2013-8-9,80.7,74.4,67.9,71.2,68.5,65.7,94,82,67,30.04,29.92,5,1,10,0.00
2013-8-10,83.5,76.2,69.3,69.3,65.1,57.9,94,70,44,30.11,30.03,8,3,13,0.00
2013-8-11,86.0,74.9,63.0,68.3,63.4,58.9,96,70,46,30.11,30.00,3,1,7,0.00
2013-8-12,77.4,73.0,69.6,73.3,69.1,64.9,95,88,78,30.03,29.88,5,1,8,0.42
2013-8-13,77.5,71.9,65.3,68.8,63.9,54.9,91,76,62,30.10,29.92,7,4,16,0.00
2013-8-14,73.7,66.4,57.9,59.3,55.2,52.1,87,68,50,30.19,30.10,4,1,10,0.00
2013-8-15,74.5,66.5,59.8,58.7,56.2,52.3,94,71,47,30.15,30.05,6,1,10,0.00
2013-8-16,76.0,68.3,59.1,60.8,58.1,54.9,91,71,52,30.14,30.07,6,1,14,0.00
2013-8-17,80.0,70.6,62.6,64.1,60.6,57.1,91,72,53,30.16,30.07,5,2,11,0.00
2013-8-18,83.8,73.3,65.0,68.5,63.4,59.5,94,73,52,30.15,30.04,5,1,9,0.00
2013-8-19,87.5,75.6,64.4,69.9,67.1,62.9,97,77,49,30.10,29.98,4,0,9,0.00
2013-8-20,87.4,77.6,66.3,71.1,68.3,64.4,94,75,52,30.08,29.99,4,1,7,0.00
2013-8-21,90.7,79.0,68.0,72.3,68.8,64.9,96,74,44,30.09,29.98,4,1,10,0.00
2013-8-22,89.0,79.7,69.8,76.7,72.5,67.8,95,80,58,30.06,29.97,6,1,9,0.00
2013-8-23,88.1,79.7,72.0,74.5,71.5,69.2,93,77,58,30.07,30.00,6,2,11,0.00
2013-8-24,89.6,77.8,68.6,73.8,69.4,67.0,96,77,52,30.17,30.06,4,1,10,0.00
2013-8-25,90.3,79.3,67.9,70.8,68.2,65.2,92,71,46,30.23,30.11,4,1,9,0.00
2013-8-26,94.5,82.0,72.2,76.2,73.1,68.5,96,76,50,30.17,30.00,4,1,7,0.00
2013-8-27,95.1,83.3,74.5,75.4,71.7,66.6,91,70,41,30.04,29.92,5,2,10,0.00
2013-8-28,96.2,82.8,69.9,76.6,70.8,66.8,94,70,42,30.00,29.92,6,1,12,0.00
2013-8-29,97.6,83.8,70.8,79.3,72.4,67.0,90,70,43,30.00,29.90,8,1,11,0.00
2013-8-30,99.7,85.8,74.4,78.3,74.4,70.7,97,72,41,29.92,29.76,5,1,11,0.00
2013-8-31,100.0,86.8,73.9,77.8,74.1,68.7,94,69,38,29.79,29.65,6,2,12,0.00
2013-9-1,90.0,81.4,73.5,77.8,74.4,66.4,97,80,54,29.80,29.72,13,2,28,0.01
2013-9-2,82.1,76.0,70.1,71.6,64.1,58.6,79,67,54,29.93,29.80,9,5,17,0.00
2013-9-3,81.5,70.5,62.8,63.6,59.7,56.8,85,69,49,30.06,29.93,5,2,10,0.00
2013-9-4,87.1,73.5,63.5,66.5,61.7,53.5,95,69,37,30.14,30.04,4,1,6,0.00
2013-9-5,88.4,75.1,62.6,69.8,65.0,58.2,97,73,38,30.17,30.08,5,0,8,0.00
2013-9-6,89.2,76.7,66.7,69.2,65.3,60.6,91,70,39,30.15,29.98,4,1,8,0.00
2013-9-7,93.8,78.5,65.6,70.2,66.4,62.8,93,70,38,30.01,29.86,4,1,12,0.00
2013-9-8,84.7,76.6,71.5,76.3,71.5,67.1,97,85,73,29.98,29.85,9,1,22,0.42
2013-9-9,97.7,83.2,72.4,77.9,72.8,69.0,96,75,41,29.94,29.85,4,1,10,0.00
2013-9-10,97.6,81.4,73.5,75.9,72.1,63.8,91,76,35,30.03,29.90,5,1,11,0.00
2013-9-11,97.3,82.1,70.7,76.1,70.1,66.0,94,70,37,30.09,29.97,4,0,6,0.00
2013-9-12,84.4,76.9,69.9,72.6,65.2,51.7,86,68,48,30.04,29.94,9,4,15,0.00
2013-9-13,73.5,66.8,59.9,59.1,51.6,43.3,76,59,41,30.12,30.04,8,4,16,0.00
2013-9-14,75.8,62.5,51.5,51.5,47.1,40.8,88,61,30,30.15,30.01,4,1,9,0.00
2013-9-15,78.5,67.2,54.2,67.5,56.1,47.9,91,69,48,30.09,29.95,7,2,13,0.01
2013-9-16,72.2,62.6,58.5,63.9,57.1,54.3,92,83,59,30.22,30.08,8,4,15,0.00
2013-9-17,70.6,63.0,58.0,64.9,59.1,54.2,96,87,76,30.23,30.05,2,0,6,0.03
2013-9-18,87.8,73.9,64.1,72.1,67.2,62.3,98,81,58,30.06,29.90,5,1,14,0.17
2013-9-19,90.2,78.2,70.3,74.1,70.1,68.0,93,78,52,29.93,29.79,6,2,17,0.00
2013-9-20,79.4,69.0,67.2,70.7,65.6,61.2,97,89,68,29.89,29.84,14,3,19,0.90
2013-9-21,70.2,62.7,56.4,61.2,54.5,50.6,93,76,52,29.96,29.86,10,5,17,0.00
2013-9-22,73.9,63.2,51.7,59.7,54.1,50.8,98,75,49,30.01,29.91,4,1,10,0.02
2013-9-23,75.5,63.6,52.9,56.4,53.4,51.0,95,72,45,30.02,29.89,4,1,12,0.00
2013-9-24,81.0,66.4,55.5,64.8,58.3,52.3,94,77,55,29.93,29.76,6,1,13,0.04
2013-9-25,81.1,71.3,63.8,69.4,65.6,62.6,97,84,58,29.84,29.76,5,1,10,0.00
2013-9-26,84.3,71.9,62.6,67.9,64.8,60.3,96,80,47,29.98,29.82,4,1,9,0.00
2013-9-27,83.3,70.7,60.7,66.0,59.8,55.2,90,70,46,30.08,29.95,4,1,11,0.00
2013-9-28,84.3,72.2,61.4,68.9,62.4,55.6,93,73,53,30.01,29.89,13,2,21,0.00
2013-9-29,68.4,61.4,58.7,64.1,56.6,54.4,94,85,69,30.04,29.94,14,4,20,0.01
2013-9-30,79.5,62.3,53.8,64.3,56.9,52.3,95,84,55,29.96,29.85,4,0,13,0.00
2013-10-1,81.3,70.8,61.4,70.5,66.4,60.2,98,87,68,30.00,29.91,3,1,8,0.00
2013-10-2,85.5,72.5,65.9,72.7,68.1,65.2,98,87,58,30.03,29.91,4,1,8,0.00
2013-10-3,83.8,75.7,67.4,71.4,68.8,66.2,97,81,62,29.93,29.81,5,1,17,0.03
2013-10-4,87.2,78.1,66.0,72.3,69.3,65.0,98,76,56,29.94,29.84,5,2,13,0.03
2013-10-5,75.7,68.7,56.0,71.3,65.3,52.8,96,89,72,29.91,29.81,9,2,17,0.22
2013-10-6,56.5,53.2,49.1,53.1,46.3,40.9,95,78,58,29.89,29.83,13,5,24,0.01
2013-10-7,71.5,56.7,51.5,54.2,49.2,46.3,93,78,43,30.12,29.89,7,4,16,0.00
2013-10-8,75.5,60.4,47.4,57.1,50.6,46.3,98,74,39,30.19,30.09,2,1,10,0.00
2013-10-9,74.5,57.0,51.3,58.7,50.8,47.6,88,81,46,30.14,30.06,2,0,6,0.00
2013-10-10,78.2,66.2,56.6,63.4,58.7,55.2,97,78,53,30.14,29.97,4,1,9,0.00
2013-10-11,80.7,62.0,56.7,58.5,56.3,54.9,95,84,42,30.00,29.85,3,1,11,0.00
2013-10-12,74.4,65.8,60.0,63.6,56.7,45.6,93,74,44,30.18,29.91,9,2,16,0.00
2013-10-13,73.0,62.0,49.9,48.7,41.6,35.1,90,50,26,30.37,30.18,6,2,11,0.00
2013-10-14,67.5,57.7,47.1,52.8,44.1,35.1,78,62,45,30.33,30.07,4,1,10,0.00
2013-10-15,67.7,62.0,58.0,64.5,57.6,52.2,97,86,76,30.07,29.86,5,2,18,0.28
2013-10-16,58.0,51.8,46.0,52.2,45.1,42.3,95,78,63,30.04,29.96,10,4,17,0.01
2013-10-17,64.9,53.4,47.1,48.8,44.9,39.5,95,75,40,30.00,29.88,7,2,17,0.01
2013-10-18,59.1,50.6,44.5,45.2,43.3,38.0,90,77,47,30.03,29.93,11,4,18,0.07
2013-10-19,57.6,47.2,41.5,42.5,39.7,37.0,95,77,47,30.03,29.92,9,4,17,0.20
2013-10-20,71.6,55.6,40.0,46.2,42.1,37.1,91,64,35,29.95,29.82,8,2,19,0.00
2013-10-21,56.2,50.7,44.0,46.4,41.2,34.1,84,70,48,30.05,29.90,13,4,19,0.00
2013-10-22,60.9,46.2,36.0,48.4,40.7,34.4,96,82,56,30.05,29.78,19,4,35,0.15
2013-10-23,48.7,40.9,37.3,38.7,35.8,29.8,91,83,49,30.14,30.00,11,6,17,0.01
2013-10-24,45.6,41.9,38.9,38.3,32.2,26.3,92,70,48,30.38,30.12,17,7,26,0.00
2013-10-25,55.4,41.2,27.0,34.0,29.7,25.1,94,67,35,30.52,30.21,5,1,12,0.00
2013-10-26,61.7,50.0,38.5,43.9,35.1,29.0,75,58,39,30.21,30.00,14,4,23,0.00
2013-10-27,60.3,45.9,33.1,38.8,33.4,29.3,92,66,32,30.14,30.00,4,1,10,0.00
2013-10-28,69.0,51.7,38.2,48.3,41.9,35.3,91,71,39,30.23,30.05,3,0,7,0.00
2013-10-29,56.7,52.0,47.1,55.4,47.9,39.6,98,86,70,30.24,30.04,2,1,8,0.24
2013-10-30,71.3,63.0,56.0,68.8,61.3,55.4,98,94,83,30.05,29.84,6,1,18,0.02
2013-10-31,67.4,60.7,47.9,64.5,59.0,45.9,98,94,89,29.84,29.35,16,3,27,0.79
2013-11-1,59.1,52.3,46.9,47.5,45.0,42.3,96,78,56,29.85,29.61,14,4,23,0.00
2013-11-2,53.4,48.2,41.7,43.5,40.9,36.9,91,77,54,30.18,29.84,15,5,25,0.01
2013-11-3,58.2,45.2,33.0,42.8,37.3,32.0,98,77,43,30.30,30.15,3,1,11,0.01
2013-11-4,61.9,52.1,46.0,48.3,43.2,38.6,80,72,56,30.21,30.09,3,1,13,0.00
2013-11-5,59.8,55.9,52.1,55.0,51.6,48.0,97,86,76,30.25,29.97,3,1,10,0.28
2013-11-6,58.4,49.0,38.9,57.5,46.0,36.1,97,89,76,30.27,29.89,17,6,27,0.34
2013-11-7,55.7,43.5,33.5,39.9,35.7,32.0,96,76,45,30.39,30.27,10,3,16,0.00
2013-11-8,58.7,45.7,31.3,40.4,35.2,29.8,96,70,36,30.38,30.06,5,1,16,0.00
2013-11-9,67.4,55.0,45.0,45.1,39.8,36.9,75,58,33,30.24,30.04,9,3,24,0.00
2013-11-10,54.9,47.3,40.6,40.2,34.5,30.7,88,62,42,30.43,30.24,10,3,16,0.00
2013-11-11,62.9,46.4,33.0,49.7,40.0,29.8,90,79,58,30.52,30.11,13,4,24,0.11
2013-11-12,36.3,30.7,25.3,30.3,20.6,15.9,89,67,44,30.79,30.52,12,5,24,0.00
2013-11-13,47.9,30.1,21.3,23.0,19.4,16.1,91,68,30,30.72,30.31,4,0,11,0.00
2013-11-14,60.8,43.4,28.3,28.9,22.4,15.0,75,47,20,30.31,30.04,8,2,20,0.00
2013-11-15,57.8,47.8,41.8,42.3,35.7,27.2,87,64,42,30.06,29.92,3,1,10,0.01
2013-11-16,64.9,57.3,44.5,60.6,53.1,40.9,92,86,75,29.92,29.60,7,2,20,0.02
2013-11-17,77.3,63.9,49.5,66.0,50.6,27.3,96,66,25,29.96,29.34,19,7,43,0.21
2013-11-18,55.1,46.8,38.9,41.4,35.4,26.3,88,67,33,30.31,29.96,15,4,24,0.00
2013-11-19,48.1,39.5,33.2,34.3,30.5,27.9,84,71,47,30.37,30.22,4,1,9,0.00
2013-11-20,48.1,40.3,33.2,42.0,35.3,28.9,91,82,67,30.23,30.03,5,1,9,0.15
2013-11-21,50.6,48.5,45.3,49.1,47.0,41.6,98,94,79,30.20,30.08,4,0,8,0.40
2013-11-22,49.2,38.9,35.6,48.7,36.0,31.6,98,89,83,30.55,30.20,16,8,22,0.01
2013-11-23,35.6,29.0,19.9,32.1,20.1,12.5,87,70,52,30.76,30.54,16,8,25,0.01
2013-11-24,29.6,23.0,16.6,19.1,13.5,9.6,81,67,45,30.80,30.46,6,2,11,0.00
2013-11-25,36.1,32.7,27.5,25.4,20.2,16.5,69,60,49,30.46,30.18,5,1,13,0.00
2013-11-26,38.6,33.0,24.5,29.4,23.8,12.9,80,69,57,30.29,30.10,19,7,29,0.00
2013-11-27,29.4,23.6,18.9,16.2,12.0,9.2,73,61,46,30.40,30.27,14,6,20,0.00
2013-11-28,45.3,33.0,20.8,28.4,20.3,13.0,75,60,46,30.51,30.26,10,3,20,0.00
2013-11-29,46.1,35.0,25.7,28.6,24.3,20.0,81,66,47,30.61,30.39,6,2,11,0.00
2013-11-30,58.9,41.8,29.0,39.6,33.1,25.9,91,73,47,30.39,30.08,3,1,9,0.00
2013-12-1,57.1,42.4,31.4,40.3,35.1,30.1,96,77,49,30.13,29.89,3,1,7,0.00
2013-12-2,55.2,46.3,38.8,45.3,39.7,34.1,86,78,67,29.91,29.67,3,1,7,0.00
2013-12-3,60.9,51.5,40.5,52.9,47.7,39.4,98,87,74,29.70,29.60,3,1,8,0.00
2013-12-4,68.3,51.0,37.8,53.3,47.8,32.3,98,90,59,29.88,29.53,16,4,26,0.01
2013-12-5,37.8,27.8,23.0,32.4,20.0,13.4,85,72,60,30.33,29.88,18,10,25,0.00
2013-12-6,24.9,21.4,16.8,15.5,11.1,5.7,73,64,55,30.64,30.31,11,7,18,0.00
2013-12-7,23.7,18.6,12.4,11.7,7.9,6.0,76,63,48,30.75,30.48,8,5,15,0.00
2013-12-8,27.7,24.8,21.8,25.3,20.6,11.5,94,84,62,30.50,30.03,7,3,14,0.00
2013-12-9,27.7,23.7,20.4,24.6,16.9,12.7,88,75,63,30.36,30.11,11,6,19,0.00
2013-12-10,36.1,25.1,15.3,22.8,15.1,9.4,81,67,44,30.34,30.26,12,4,21,0.00
2013-12-11,31.0,23.2,12.7,22.9,13.4,0.7,91,67,42,30.69,30.31,17,6,25,0.00
2013-12-12,40.2,24.1,7.7,18.7,10.1,-0.5,78,57,35,30.68,30.29,7,1,17,0.00
2013-12-13,35.1,29.3,20.1,32.9,25.2,16.0,96,85,66,30.29,29.96,3,1,6,0.26
2013-12-14,34.6,31.6,27.2,33.2,30.0,23.8,97,94,88,30.17,29.86,19,7,27,0.11
2013-12-15,33.7,27.3,21.6,27.6,23.1,17.9,91,84,73,30.22,30.05,12,4,20,0.11
2013-12-16,32.0,27.9,25.3,28.2,25.7,23.3,95,91,85,30.16,30.01,11,2,16,0.02
2013-12-17,41.6,32.5,25.6,31.2,26.6,21.3,94,79,62,30.29,30.14,13,4,19,0.19
2013-12-18,47.9,34.8,21.2,35.1,27.2,18.6,91,75,52,30.28,29.94,2,0,8,0.01
2013-12-19,52.8,44.1,36.2,46.3,40.3,33.4,94,86,75,29.94,29.77,3,1,6,0.00
2013-12-20,66.5,46.0,34.6,59.1,43.7,33.1,97,92,73,29.88,29.67,18,4,25,0.03
2013-12-21,34.5,33.3,32.7,33.2,31.8,30.8,96,94,92,29.86,29.58,9,2,16,0.58
2013-12-22,34.0,31.9,25.7,32.4,29.7,20.8,97,91,80,30.31,29.66,15,1,24,0.07
2013-12-23,25.5,20.3,12.0,21.0,15.4,4.4,86,81,70,30.63,30.31,15,9,25,0.00
2013-12-24,23.9,16.2,7.2,14.9,6.0,-0.8,80,64,43,30.66,30.38,11,3,16,0.00
2013-12-25,35.1,30.8,23.9,31.1,25.3,14.2,87,80,66,30.39,30.24,8,3,15,0.00
2013-12-26,50.1,36.3,25.0,31.7,27.1,23.3,95,72,38,30.39,30.24,6,1,12,0.00
2013-12-27,55.7,40.1,28.8,34.6,30.1,25.2,91,69,40,30.39,30.24,4,1,9,0.00
2013-12-28,59.1,43.3,32.5,35.1,31.7,28.9,88,66,33,30.24,29.91,6,1,19,0.00
2013-12-29,39.9,28.3,17.0,32.8,22.2,6.3,88,78,61,30.31,29.85,20,10,31,0.00
2013-12-30,26.1,18.7,9.8,17.2,6.5,-0.7,72,59,45,30.40,30.24,10,3,14,0.00
2013-12-31,42.4,32.0,24.2,26.5,21.5,15.9,78,65,48,30.43,30.17,7,2,11,0.00
2014-1-1,43.9,32.7,23.6,31.6,26.3,21.6,93,78,58,30.18,30.04,11,3,20,0.00
2014-1-2,23.6,17.4,11.0,21.5,12.1,5.0,92,80,68,32.21,30.16,18,11,26,0.00